[[{"header":{"parameterUnit":"m.s-1","parameterCategory":2,"la1":30.2991,"la2":30.254,"lo1":-89.0895,"lo2":-89.0444,"dy":0.0017,"dx":0.0017,"nx":28,"ny":28,"refTime":"2024-04-15T09:00:00:Z","depth":"0","parameterNumber":2,"parameterNumberName":"U-component_of_CURRENTS"},"data":[0,0,0,0,0,0,0,0,0,0,0,0,0,0,0,0,0,0,0,0,0,0,0,0,0,0,0,0,0,0,0,0,0,0,0,0,0,0,0,0,0,0,0,0,0,0,0,0,0,0,0,0,0,0,0,0,0,0,0.1661,0.1661,0,0.1692,0.1692,0.1692,0.1675,0.1674,0.1673,0.1673,0.1636,0.1636,0.1635,0,0,0,0,0,0,0,0,0,0,0,0,0,0.1589,0.159,0.1661,0.1661,0.1662,0.1692,0.1692,0.1692,0.1675,0.1674,0.1673,0.1672,0.1636,0.1636,0.1635,0,0,0,0,0,0,0,0,0,0,0,0,0,0.1618,0.1591,0.1661,0.1658,0.1658,0.1692,0.1692,0.1692,0.1675,0.1674,0.1673,0.1672,0.1636,0.1636,0.1635,0.1653,0,0,0.1634,0.1634,0,0,0,0,0,0,0,0,0.1617,0.1621,0.1658,0.1658,0.1659,0.168,0.1654,0.1677,0.1675,0.1666,0.1673,0.1671,0.1647,0.1645,0.1652,0.1651,0.165,0.1634,0.1634,0.1633,0.1633,0,0,0,0,0,0,0,0.1615,0.1619,0.1671,0.1659,0.1659,0.1657,0.1659,0.1658,0.1659,0.1667,0.1666,0.1673,0.1646,0.1652,0.165,0.1649,0.1634,0.1633,0.1633,0.1633,0.1701,0.1703,0,0,0,0,0,0,0.1616,0.1618,0.167,0.1672,0.1637,0.1659,0.1662,0.1673,0.1661,0.1659,0.1674,0.1673,0.1653,0.1651,0.1649,0.1685,0.1633,0.1633,0.1633,0.1699,0.1702,0.1704,0,0,0,0,0,0,0.1615,0.1621,0.1669,0.1647,0.1653,0.1662,0.1673,0.1674,0.1684,0.1667,0.1663,0.1685,0.1653,0.165,0.1664,0.1683,0.1633,0.1632,0.1697,0.17,0.1703,0.1747,0,0,0,0,0,0,0.1613,0.162,0.1629,0.1647,0.1654,0.17,0.1675,0.1675,0.1691,0.1689,0.1675,0.167,0.1652,0.1666,0.1664,0.1681,0.1632,0.1694,0.1698,0.1702,0.1743,0.1752,0.1759,0,0,0,0,0,0.161,0.1623,0.1629,0.1636,0.1666,0.1702,0.1706,0.1706,0.1692,0.1708,0.1701,0.1671,0.1689,0.1667,0.1664,0.1682,0.1692,0.1697,0.1702,0.174,0.175,0.1759,0,0,0,0,0,0,0.1592,0.1624,0.163,0.1652,0.1682,0.1699,0.171,0.1715,0.1723,0.1714,0.1694,0.1691,0.1713,0.1701,0.1676,0.1718,0.1688,0.1692,0.1718,0.1727,0.1735,0.1741,0.1631,0,0,0,0,0,0.1597,0.1615,0.1649,0.1667,0.1682,0.17,0.1713,0.1718,0.1729,0.1731,0.1725,0.1723,0.1733,0.1731,0.1737,0.1755,0.1812,0.177,0.1778,0.1784,0.1792,0.1938,0.196,0.172,0.172,0.172,0,0,0.1591,0.1614,0.1621,0.1665,0.1682,0.1712,0.1704,0.173,0.1748,0.1725,0.1743,0.175,0.1747,0.1771,0.178,0.1759,0.1882,0.179,0.1795,0.1799,0.1945,0.1969,0.199,0.1723,0.1722,0.1722,0,0,0.1597,0.1616,0.1637,0.1667,0.1706,0.1722,0.1734,0.1763,0.1769,0.1798,0.1789,0.1814,0.1819,0.1829,0.1831,0.189,0.1924,0.1891,0.1925,0.2067,0.2088,0.2108,0.2208,0.2236,0.1888,0.1888,0.1888,0,0.159,0.1625,0.165,0.1684,0.1703,0.1729,0.1755,0.1776,0.1805,0.1819,0.1809,0.1863,0.185,0.1896,0.1909,0.1906,0.1989,0.1882,0.2079,0.2099,0.2118,0.2217,0.2247,0.1891,0.1891,0.189,0.189,0,0.1619,0.1649,0.1665,0.1714,0.1738,0.1769,0.18,0.1827,0.1837,0.186,0.1915,0.1928,0.1967,0.1964,0.1944,0.2062,0.2079,0.2078,0.2054,0.2146,0.2243,0.2274,0.1895,0.1894,0.1893,0.1892,0,0,0.16,0.167,0.1677,0.1702,0.1755,0.1778,0.1814,0.1861,0.1901,0.1934,0.2005,0.2015,0.2045,0.2053,0.2056,0.215,0.2337,0.2169,0.2176,0.2267,0.2654,0.2595,0.2623,0.2394,0.2399,0.2404,0.2666,0,0.1617,0.1673,0.1705,0.1752,0.178,0.1815,0.1853,0.1895,0.1939,0.2019,0.2054,0.2128,0.2075,0.2122,0.2208,0.2315,0.2423,0.2265,0.2553,0.256,0.2497,0.2658,0.2585,0.2808,0.2697,0.2702,0.2705,0,0.1638,0.1671,0.1714,0.1776,0.1792,0.1823,0.1891,0.194,0.2044,0.2088,0.217,0.2224,0.2343,0.2313,0.2546,0.2461,0.2564,0.2638,0.2651,0.2602,0.256,0.27,0.2868,0.2755,0.2753,0.2749,0.2746,0,0.1609,0.1679,0.1708,0.1729,0.1803,0.1824,0.1871,0.1954,0.2021,0.2166,0.2254,0.2382,0.249,0.2643,0.2742,0.27,0.3014,0.2982,0.3023,0.3019,0.3012,0.2996,0.31,0.319,0.319,0.3189,0.3188,0,0.1617,0.1643,0.1698,0.1716,0.1765,0.1817,0.19,0.1962,0.2098,0.2197,0.2305,0.2417,0.2593,0.2756,0.2841,0.3021,0.3108,0.3073,0.3108,0.3021,0.3004,0.2944,0.2867,0.3199,0.3196,0.3195,0.3193,0,0.1587,0.1629,0.1668,0.1731,0.1756,0.1793,0.1919,0.1994,0.212,0.2269,0.2335,0.2522,0.2734,0.2873,0.3132,0.3155,0.3237,0.3356,0.3207,0.3219,0.3122,0.305,0.3112,0.3006,0.349,0.349,0.3491,0,0.1577,0.1593,0.166,0.1697,0.1729,0.1803,0.1866,0.1991,0.2078,0.2305,0.238,0.2626,0.2758,0.3091,0.3225,0.342,0.3275,0.3433,0.3323,0.3144,0.3094,0.2937,0.283,0.3345,0.3344,0.3344,0.3343,0,0.1561,0.1585,0.1624,0.1688,0.1748,0.1807,0.1901,0.1971,0.2127,0.2254,0.2412,0.2543,0.2861,0.3034,0.3278,0.3368,0.3245,0.3423,0.3323,0.3066,0.2827,0.273,0.3103,0.3337,0.3338,0.3338,0.3338,0.3339,0.1561,0.1576,0.1636,0.1695,0.1747,0.1783,0.1815,0.1925,0.2039,0.2199,0.2349,0.2522,0.283,0.3172,0.3219,0.327,0.3223,0.3227,0.3186,0.3065,0.2862,0.3181,0.338,0.3381,0.3382,0.3382,0.3383,0,0.157,0.1593,0.1647,0.1694,0.1707,0.175,0.1819,0.184,0.192,0.2109,0.2236,0.2548,0.2751,0.2956,0.3153,0.3073,0.2915,0.2975,0.2756,0.2684,0.3087,0.2972,0.2987,0.2987,0.2987,0.2987,0.2987,0.2987,0.1587,0.1633,0.1651,0.165,0.1662,0.1652,0.1665,0.1696,0.1799,0.1969,0.2146,0.2336,0.2668,0.2927,0.2925,0.2852,0.2593,0.2511,0.2431,0.2721,0.274,0.2757,0.2632,0.2576,0.2575,0.1944,0.1939,0.1936]},{"header":{"parameterUnit":"m.s-1","parameterCategory":2,"la1":30.2991,"la2":30.254,"lo1":-89.0895,"lo2":-89.0444,"dy":0.0017,"dx":0.0017,"nx":28,"ny":28,"refTime":"2024-04-15T09:00:00:Z","depth":"0","parameterNumber":3,"parameterNumberName":"V-component_of_CURRENTS"},"data":[0,0,0,0,0,0,0,0,0,0,0,0,0,0,0,0,0,0,0,0,0,0,0,0,0,0,0,0,0,0,0,0,0,0,0,0,0,0,0,0,0,0,0,0,0,0,0,0,0,0,0,0,0,0,0,0,0,0,-0.0208,-0.0209,0,-0.0259,-0.0259,-0.026,-0.0291,-0.0292,-0.0292,-0.0292,-0.0352,-0.0354,-0.0355,0,0,0,0,0,0,0,0,0,0,0,0,0,-0.0177,-0.0178,-0.0208,-0.0209,-0.0209,-0.0259,-0.0259,-0.026,-0.0291,-0.0292,-0.0292,-0.0292,-0.0352,-0.0354,-0.0355,0,0,0,0,0,0,0,0,0,0,0,0,0,-0.0206,-0.0178,-0.0208,-0.0231,-0.0233,-0.0258,-0.0259,-0.026,-0.0291,-0.0292,-0.0292,-0.0292,-0.0351,-0.0354,-0.0356,-0.0365,0,0,-0.0362,-0.0363,0,0,0,0,0,0,0,0,-0.0204,-0.0207,-0.0227,-0.0229,-0.0232,-0.0269,-0.0271,-0.0296,-0.0291,-0.027,-0.0292,-0.0292,-0.0325,-0.0329,-0.0339,-0.0368,-0.037,-0.0363,-0.0364,-0.0365,-0.0366,0,0,0,0,0,0,0,-0.0202,-0.0205,-0.0228,-0.0227,-0.0231,-0.0252,-0.0255,-0.0276,-0.0296,-0.0272,-0.0274,-0.0279,-0.0327,-0.0337,-0.034,-0.0371,-0.0363,-0.0365,-0.0366,-0.0367,-0.0394,-0.0394,0,0,0,0,0,0,-0.0193,-0.0203,-0.0227,-0.023,-0.0218,-0.0252,-0.0256,-0.0257,-0.0296,-0.0302,-0.0279,-0.028,-0.0333,-0.0338,-0.0343,-0.0352,-0.0365,-0.0367,-0.0368,-0.0395,-0.0394,-0.0393,0,0,0,0,0,0,-0.0192,-0.0194,-0.0225,-0.0218,-0.0223,-0.0252,-0.0253,-0.0258,-0.0267,-0.0301,-0.0307,-0.0283,-0.0333,-0.034,-0.0355,-0.0354,-0.0368,-0.037,-0.0395,-0.0395,-0.0394,-0.0373,0,0,0,0,0,0,-0.0191,-0.0194,-0.019,-0.0217,-0.0223,-0.0233,-0.0253,-0.0259,-0.027,-0.0273,-0.0306,-0.0312,-0.0334,-0.0351,-0.0357,-0.0358,-0.0372,-0.0396,-0.0395,-0.0394,-0.0374,-0.0371,-0.0368,0,0,0,0,0,-0.0189,-0.0179,-0.019,-0.0193,-0.0218,-0.0233,-0.0238,-0.026,-0.027,-0.027,-0.0292,-0.0311,-0.0348,-0.0353,-0.036,-0.0361,-0.0397,-0.0395,-0.0394,-0.0375,-0.0372,-0.0369,0,0,0,0,0,0,-0.0163,-0.0183,-0.0194,-0.0191,-0.0209,-0.0238,-0.0239,-0.0256,-0.0274,-0.0275,-0.0308,-0.0315,-0.0327,-0.0343,-0.0347,-0.0363,-0.0374,-0.0374,-0.0357,-0.0354,-0.0351,-0.032,-0.0374,0,0,0,0,0,-0.0155,-0.0153,-0.0179,-0.0176,-0.0182,-0.0211,-0.022,-0.0235,-0.0255,-0.0264,-0.0287,-0.0308,-0.0327,-0.0339,-0.0355,-0.0367,-0.0325,-0.0369,-0.0367,-0.0364,-0.0342,-0.0253,-0.0239,-0.0389,-0.0389,-0.0389,0,0,-0.0144,-0.0155,-0.0153,-0.017,-0.0185,-0.0196,-0.0216,-0.0225,-0.0235,-0.0267,-0.0282,-0.03,-0.0327,-0.0339,-0.0346,-0.0353,-0.0304,-0.0363,-0.0361,-0.0339,-0.025,-0.0235,-0.0221,-0.0388,-0.0388,-0.0388,0,0,-0.0123,-0.0129,-0.0125,-0.0139,-0.0159,-0.0177,-0.0178,-0.0205,-0.0216,-0.0233,-0.0256,-0.0265,-0.0301,-0.0314,-0.0328,-0.0316,-0.029,-0.0328,-0.0294,-0.0209,-0.0195,-0.0182,-0.0123,-0.0105,-0.0329,-0.0329,-0.0329,0,-0.0108,-0.0113,-0.0126,-0.0131,-0.0141,-0.0168,-0.0171,-0.0188,-0.0216,-0.0206,-0.0231,-0.0241,-0.0285,-0.0277,-0.029,-0.031,-0.0256,-0.031,-0.0202,-0.0189,-0.0176,-0.0118,-0.0098,-0.0328,-0.0328,-0.0328,-0.0328,0,-0.0093,-0.01,-0.0097,-0.0115,-0.0122,-0.0128,-0.0153,-0.0155,-0.0171,-0.0176,-0.0162,-0.02,-0.0188,-0.0226,-0.0269,-0.021,-0.02,-0.0206,-0.0207,-0.0159,-0.0102,-0.0082,-0.0326,-0.0327,-0.0327,-0.0327,0,0,-0.0052,-0.0082,-0.0082,-0.0081,-0.0115,-0.0109,-0.0122,-0.012,-0.007,-0.0115,-0.004,-0.0127,-0.0107,-0.012,-0.0156,-0.0123,-0.0029,-0.0132,-0.0128,-0.0066,0.0165,0.0087,0.0102,-0.0,0.0004,0.0007,0.0163,0,-0.0039,-0.0046,-0.0065,-0.006,-0.0064,-0.0081,-0.0064,-0.0058,-0.0042,0.0031,-0.0003,0.0056,-0.0077,-0.0032,-0.0031,-0.0002,0.0029,-0.0071,0.0104,0.0109,0.0041,0.0124,0.0077,0.0207,0.0183,0.0186,0.0189,0,-0.0024,-0.0029,-0.0033,-0.001,-0.0004,0.0009,0.0072,0.0093,0.0166,0.0198,0.0234,0.0245,0.0268,0.0183,0.0231,0.0185,0.0174,0.0171,0.0178,0.0119,0.007,0.0158,0.0244,0.004,0.022,0.0218,0.0215,0,0.0006,0.0002,0.0004,-0.0,0.0018,0.0049,0.0089,0.0154,0.0254,0.0353,0.0475,0.0465,0.0553,0.0519,0.0436,0.0385,0.0515,0.0458,0.0371,0.0365,0.0365,0.0352,0.0285,0.0521,0.052,0.052,0.0519,0,0.0018,0.0028,0.0032,0.0036,0.013,0.0122,0.0277,0.0312,0.0466,0.0648,0.0601,0.0751,0.0654,0.0686,0.0565,0.0527,0.0622,0.041,0.0417,0.0365,0.035,0.0202,0.0099,0.0526,0.0524,0.0523,0.0522,0,0.0044,0.0025,0.0068,0.0108,0.0144,0.0233,0.0431,0.0588,0.0675,0.0929,0.0991,0.1047,0.1069,0.0928,0.0908,0.074,0.0577,0.0634,0.0549,0.0541,0.0234,0.0135,0.0146,0.0071,0.0603,0.0602,0.0601,0,0.005,0.0059,0.0149,0.0262,0.0295,0.0442,0.0598,0.0698,0.0882,0.1112,0.1268,0.1339,0.1395,0.128,0.0992,0.0793,0.0607,0.0622,0.0484,0.0233,0.0132,0.0065,-0.0004,0.05,0.0499,0.0498,0.0497,0,0.0112,0.0148,0.0222,0.0439,0.0607,0.0776,0.0979,0.1126,0.129,0.1462,0.1664,0.1716,0.1574,0.1345,0.1024,0.0842,0.0462,0.059,0.0392,0.0097,-0.0029,-0.0103,0.0352,0.0486,0.0487,0.0488,0.0489,0.0489,0.0222,0.0331,0.0485,0.0693,0.0882,0.1092,0.1229,0.1427,0.1652,0.1866,0.1914,0.1984,0.164,0.118,0.0901,0.0339,0.0393,0.0179,0.0103,0.0074,-0.0076,0.0322,0.0407,0.0408,0.0408,0.0409,0.0409,0,0.0428,0.0558,0.0764,0.1002,0.12,0.1246,0.1497,0.161,0.1814,0.1996,0.2111,0.197,0.1508,0.102,0.0299,-0.0079,-0.0218,-0.0271,-0.0378,-0.0408,0.0012,-0.0082,-0.0173,-0.0173,-0.0173,-0.0172,-0.0172,-0.0172,0.058,0.0829,0.0928,0.1255,0.1386,0.16,0.1705,0.1831,0.1959,0.2107,0.2139,0.2162,0.1796,0.0552,-0.0341,-0.0547,-0.079,-0.0828,-0.0917,-0.0682,-0.0647,-0.0614,-0.0729,-0.0954,-0.0955,-0.1317,-0.1321,-0.1324]}],[{"header":{"parameterUnit":"m.s-1","parameterCategory":2,"la1":30.2991,"la2":30.254,"lo1":-89.0895,"lo2":-89.0444,"dy":0.0017,"dx":0.0017,"nx":28,"ny":28,"refTime":"2024-04-15T09:00:00:Z","depth":"2","parameterNumber":2,"parameterNumberName":"U-component_of_CURRENTS"},"data":[0,0,0,0,0,0,0,0,0,0,0,0,0,0,0,0,0,0,0,0,0,0,0,0,0,0,0,0,0,0,0,0,0,0,0,0,0,0,0,0,0,0,0,0,0,0,0,0,0,0,0,0,0,0,0,0,0,0,0.1678,0.1679,0,0.1728,0.1729,0.1729,0.1727,0.1727,0.1726,0.1725,0.1694,0.1694,0.1694,0,0,0,0,0,0,0,0,0,0,0,0,0,0.1621,0.1622,0.1678,0.1679,0.1679,0.1728,0.1729,0.1729,0.1727,0.1726,0.1726,0.1725,0.1694,0.1694,0.1694,0,0,0,0,0,0,0,0,0,0,0,0,0,0.1655,0.1622,0.1678,0.1685,0.1686,0.1728,0.1729,0.1729,0.1727,0.1726,0.1726,0.1725,0.1694,0.1694,0.1694,0.1711,0,0,0.1693,0.1692,0,0,0,0,0,0,0,0,0.1653,0.1657,0.1683,0.1684,0.1686,0.1721,0.1697,0.1719,0.1728,0.1711,0.1725,0.1724,0.1697,0.1696,0.1708,0.1709,0.1708,0.1693,0.1692,0.1692,0.1692,0,0,0,0,0,0,0,0.1651,0.1656,0.1697,0.1684,0.1685,0.1699,0.1703,0.1702,0.1707,0.1712,0.1712,0.1719,0.1697,0.1708,0.1707,0.1708,0.1693,0.1692,0.1692,0.1692,0.1758,0.176,0,0,0,0,0,0,0.1645,0.1653,0.1696,0.1699,0.1668,0.1701,0.1705,0.171,0.1708,0.1708,0.172,0.1719,0.1709,0.1707,0.1706,0.1744,0.1692,0.1692,0.1692,0.1756,0.1758,0.176,0,0,0,0,0,0,0.1644,0.1649,0.1693,0.1678,0.1684,0.1703,0.1709,0.1712,0.1732,0.1715,0.1713,0.1738,0.1709,0.1706,0.1724,0.1742,0.1692,0.1691,0.1754,0.1757,0.1759,0.1809,0,0,0,0,0,0,0.1642,0.1648,0.1657,0.1677,0.1685,0.1736,0.171,0.1713,0.1737,0.1736,0.173,0.1726,0.1708,0.1725,0.1724,0.1741,0.1691,0.1751,0.1755,0.1758,0.1805,0.1813,0.182,0,0,0,0,0,0.164,0.1652,0.1657,0.1663,0.1695,0.1738,0.1744,0.1753,0.1739,0.1764,0.1757,0.1726,0.1747,0.1727,0.1725,0.1741,0.1749,0.1754,0.1758,0.1801,0.1812,0.182,0,0,0,0,0,0,0.1627,0.1654,0.166,0.1678,0.1715,0.1738,0.1758,0.1764,0.178,0.1772,0.1751,0.1748,0.1772,0.1758,0.1736,0.1775,0.1744,0.1748,0.1778,0.1787,0.1795,0.1803,0.1691,0,0,0,0,0,0.1631,0.1649,0.1682,0.1699,0.172,0.1743,0.1761,0.177,0.1784,0.179,0.1784,0.1781,0.179,0.1789,0.1795,0.1814,0.1848,0.1827,0.1834,0.1841,0.1849,0.1956,0.1975,0.1775,0.1775,0.1775,0,0,0.1626,0.1647,0.1655,0.1699,0.1724,0.1758,0.1752,0.1786,0.1805,0.1783,0.1803,0.1809,0.1804,0.1829,0.1838,0.1816,0.1913,0.1846,0.1852,0.1857,0.1963,0.1982,0.2,0.1778,0.1777,0.1777,0,0,0.1637,0.1653,0.1679,0.1714,0.176,0.1776,0.179,0.1824,0.1833,0.1863,0.1851,0.1876,0.188,0.1888,0.1889,0.1947,0.1956,0.1945,0.1982,0.2086,0.2103,0.2119,0.2175,0.2196,0.1943,0.1943,0.1943,0,0.1636,0.1668,0.1696,0.1736,0.1756,0.1785,0.1816,0.184,0.1871,0.1885,0.1875,0.1925,0.191,0.1954,0.1967,0.1962,0.2016,0.1941,0.2097,0.2113,0.2129,0.2183,0.2205,0.1946,0.1946,0.1945,0.1945,0,0.1671,0.1701,0.1722,0.1774,0.1802,0.1837,0.1869,0.1898,0.1907,0.1929,0.1983,0.1994,0.2027,0.2025,0.2004,0.21,0.21,0.21,0.2072,0.2152,0.2203,0.2225,0.195,0.1949,0.1948,0.1948,0,0,0.166,0.1732,0.1741,0.1766,0.1822,0.1847,0.1884,0.1932,0.1975,0.2006,0.2073,0.2082,0.2108,0.2114,0.2114,0.2184,0.2316,0.2186,0.219,0.2238,0.2535,0.2401,0.2411,0.236,0.2365,0.2368,0.2522,0,0.1684,0.1744,0.1775,0.1825,0.1854,0.1889,0.1928,0.197,0.2015,0.2093,0.2122,0.2188,0.2138,0.2178,0.2241,0.2316,0.238,0.2273,0.2452,0.2457,0.2327,0.2434,0.2224,0.2333,0.2543,0.2547,0.255,0,0.1712,0.1744,0.179,0.1849,0.1868,0.1901,0.197,0.2018,0.212,0.2163,0.2239,0.2284,0.2379,0.2343,0.2504,0.2448,0.2491,0.2535,0.2543,0.2416,0.2364,0.2291,0.2365,0.2586,0.2583,0.2581,0.2578,0,0.1682,0.1756,0.1783,0.1804,0.1877,0.1902,0.1948,0.2035,0.21,0.2233,0.2313,0.242,0.251,0.2599,0.2645,0.2615,0.2828,0.2801,0.2713,0.2703,0.2555,0.2523,0.2925,0.2925,0.2925,0.2924,0.2924,0,0.1692,0.1717,0.1774,0.1791,0.1844,0.1893,0.1982,0.2043,0.2175,0.2283,0.2358,0.247,0.2591,0.2702,0.2727,0.2781,0.2897,0.2743,0.2751,0.2561,0.2529,0.2767,0.2746,0.293,0.2929,0.2928,0.2927,0,0.166,0.1702,0.1739,0.1805,0.1834,0.1871,0.2003,0.209,0.2194,0.2351,0.2405,0.2568,0.2708,0.2777,0.2939,0.2881,0.2945,0.2921,0.2654,0.2626,0.2731,0.2712,0.2879,0.2876,0.2873,0.2871,0.2869,0,0.1649,0.1662,0.1733,0.1778,0.1814,0.1891,0.1973,0.209,0.219,0.2398,0.2482,0.2654,0.273,0.2873,0.285,0.2872,0.2929,0.2659,0.2543,0.2745,0.2736,0.2721,0.2705,0.2375,0.237,0.2365,0.2361,0,0.1628,0.1652,0.1695,0.1782,0.1862,0.1935,0.2047,0.2116,0.2276,0.2386,0.2539,0.2608,0.2719,0.2641,0.263,0.2609,0.2635,0.256,0.2917,0.2387,0.2273,0.2263,0.2264,0.2319,0.2324,0.2327,0.2329,0.2331,0.1624,0.1654,0.1731,0.1808,0.1888,0.1952,0.1997,0.2097,0.2204,0.227,0.2421,0.2406,0.244,0.2299,0.2263,0.2243,0.2407,0.2293,0.2307,0.2326,0.2208,0.2093,0.2082,0.2085,0.2087,0.2089,0.2091,0,0.1646,0.1698,0.1765,0.1849,0.1899,0.1953,0.2041,0.2008,0.2058,0.2104,0.2124,0.192,0.1857,0.1923,0.1823,0.1812,0.1802,0.1752,0.1728,0.1771,0.1808,0.1663,0.1393,0.1391,0.1389,0.1387,0,0,0.1676,0.1748,0.1777,0.1843,0.1891,0.1915,0.1936,0.1854,0.183,0.1677,0.1634,0.1657,0.181,0.1534,0.1531,0.1457,0.1598,0.1403,0.1965,0.1977,0.2011,0.2123,0.1947,0,0,0,0,0]},{"header":{"parameterUnit":"m.s-1","parameterCategory":2,"la1":30.2991,"la2":30.254,"lo1":-89.0895,"lo2":-89.0444,"dy":0.0017,"dx":0.0017,"nx":28,"ny":28,"refTime":"2024-04-15T09:00:00:Z","depth":"2","parameterNumber":3,"parameterNumberName":"V-component_of_CURRENTS"},"data":[0,0,0,0,0,0,0,0,0,0,0,0,0,0,0,0,0,0,0,0,0,0,0,0,0,0,0,0,0,0,0,0,0,0,0,0,0,0,0,0,0,0,0,0,0,0,0,0,0,0,0,0,0,0,0,0,0,0,-0.0319,-0.032,0,-0.0373,-0.0374,-0.0375,-0.0404,-0.0404,-0.0405,-0.0405,-0.046,-0.0461,-0.0462,0,0,0,0,0,0,0,0,0,0,0,0,0,-0.0279,-0.028,-0.0319,-0.032,-0.0321,-0.0373,-0.0374,-0.0375,-0.0404,-0.0404,-0.0405,-0.0405,-0.0459,-0.0461,-0.0462,0,0,0,0,0,0,0,0,0,0,0,0,0,-0.031,-0.028,-0.0319,-0.0342,-0.0345,-0.0373,-0.0374,-0.0375,-0.0404,-0.0404,-0.0405,-0.0405,-0.0459,-0.0461,-0.0463,-0.047,0,0,-0.0469,-0.0469,0,0,0,0,0,0,0,0,-0.0309,-0.0312,-0.0338,-0.0341,-0.0344,-0.0383,-0.038,-0.0407,-0.0404,-0.0381,-0.0405,-0.0405,-0.0434,-0.0438,-0.0447,-0.0473,-0.0475,-0.0469,-0.047,-0.0471,-0.0471,0,0,0,0,0,0,0,-0.0306,-0.031,-0.034,-0.0339,-0.0343,-0.0363,-0.0367,-0.0385,-0.0405,-0.0383,-0.0386,-0.0393,-0.0436,-0.0445,-0.0448,-0.0476,-0.0469,-0.047,-0.0472,-0.0472,-0.0502,-0.0502,0,0,0,0,0,0,-0.0299,-0.0308,-0.0338,-0.0342,-0.0327,-0.0364,-0.0368,-0.037,-0.0405,-0.0411,-0.0392,-0.0394,-0.0441,-0.0446,-0.045,-0.0457,-0.0471,-0.0473,-0.0474,-0.0503,-0.0502,-0.0502,0,0,0,0,0,0,-0.0298,-0.0301,-0.0336,-0.0327,-0.0333,-0.0364,-0.0365,-0.0371,-0.038,-0.0412,-0.0418,-0.0397,-0.0442,-0.0448,-0.0465,-0.046,-0.0474,-0.0475,-0.0503,-0.0502,-0.0502,-0.0474,0,0,0,0,0,0,-0.0296,-0.03,-0.0298,-0.0326,-0.0333,-0.0348,-0.0365,-0.0372,-0.0385,-0.0387,-0.0418,-0.0423,-0.0442,-0.0462,-0.0467,-0.0463,-0.0477,-0.0504,-0.0503,-0.0502,-0.0475,-0.0472,-0.047,0,0,0,0,0,-0.0295,-0.0287,-0.0297,-0.0301,-0.0329,-0.0348,-0.0353,-0.0376,-0.0384,-0.0385,-0.0407,-0.0422,-0.046,-0.0463,-0.0469,-0.0466,-0.0504,-0.0503,-0.0502,-0.0476,-0.0473,-0.047,0,0,0,0,0,0,-0.0266,-0.029,-0.0302,-0.0301,-0.0322,-0.0353,-0.0356,-0.0373,-0.0391,-0.0391,-0.0422,-0.0428,-0.0441,-0.0455,-0.0458,-0.0471,-0.0483,-0.0483,-0.0461,-0.0458,-0.0455,-0.0435,-0.0479,0,0,0,0,0,-0.0259,-0.026,-0.0289,-0.0288,-0.0296,-0.0326,-0.0336,-0.0351,-0.0373,-0.0381,-0.0403,-0.0423,-0.0442,-0.0451,-0.0469,-0.0478,-0.0491,-0.0477,-0.0475,-0.0472,-0.0459,-0.0458,-0.0454,-0.0499,-0.0499,-0.0499,0,0,-0.0248,-0.0261,-0.0262,-0.0282,-0.0299,-0.0311,-0.0332,-0.0343,-0.0352,-0.0384,-0.0396,-0.0416,-0.0442,-0.0453,-0.0459,-0.0465,-0.0473,-0.0471,-0.0469,-0.0456,-0.0456,-0.0452,-0.0448,-0.0498,-0.0498,-0.0498,0,0,-0.023,-0.0237,-0.0236,-0.0252,-0.0275,-0.0293,-0.0295,-0.0323,-0.0333,-0.035,-0.0374,-0.0386,-0.0418,-0.0431,-0.0443,-0.0434,-0.0459,-0.0442,-0.0412,-0.0412,-0.0408,-0.0405,-0.0447,-0.0448,-0.044,-0.044,-0.044,0,-0.0216,-0.0221,-0.0238,-0.0246,-0.0254,-0.0283,-0.0286,-0.0303,-0.0332,-0.0325,-0.0349,-0.0372,-0.0405,-0.0404,-0.0411,-0.0427,-0.0444,-0.0425,-0.0408,-0.0404,-0.0401,-0.0445,-0.0446,-0.0438,-0.0438,-0.0438,-0.0439,0,-0.0204,-0.021,-0.0209,-0.0227,-0.0236,-0.0242,-0.0266,-0.0269,-0.0284,-0.0294,-0.0293,-0.0332,-0.0334,-0.0359,-0.0391,-0.0381,-0.0408,-0.0406,-0.0415,-0.0395,-0.0444,-0.0445,-0.0436,-0.0437,-0.0437,-0.0437,0,0,-0.0169,-0.0196,-0.0197,-0.0195,-0.0226,-0.0223,-0.0231,-0.0232,-0.02,-0.0242,-0.0208,-0.0266,-0.0264,-0.0278,-0.031,-0.0329,-0.0352,-0.036,-0.0361,-0.0401,-0.038,-0.0398,-0.0402,-0.0343,-0.0342,-0.0341,-0.0435,0,-0.0157,-0.0161,-0.0179,-0.0172,-0.0173,-0.019,-0.0177,-0.0175,-0.0175,-0.0145,-0.0182,-0.0162,-0.0239,-0.0224,-0.0259,-0.0307,-0.0348,-0.0328,-0.0394,-0.0397,-0.0412,-0.0401,-0.0349,-0.0426,-0.0436,-0.0437,-0.0437,0,-0.0145,-0.0145,-0.0143,-0.0123,-0.0119,-0.0108,-0.0064,-0.0055,-0.0029,-0.002,-0.0017,-0.0035,-0.0066,-0.0124,-0.0219,-0.0201,-0.0292,-0.0352,-0.0356,-0.0376,-0.0415,-0.0441,-0.0428,-0.0439,-0.0439,-0.0439,-0.0439,0,-0.011,-0.0114,-0.0104,-0.0106,-0.0093,-0.0065,-0.004,-0.0004,0.0043,0.0079,0.012,0.008,0.0083,-0.0023,-0.0177,-0.0183,-0.0291,-0.0307,-0.0423,-0.0427,-0.0396,-0.0398,-0.0382,-0.0381,-0.0381,-0.0381,-0.0381,0,-0.0093,-0.008,-0.0075,-0.0067,0.0009,-0.0003,0.0096,0.012,0.0178,0.0235,0.0203,0.021,0.0113,0.0027,-0.013,-0.0284,-0.0257,-0.0414,-0.0438,-0.039,-0.039,-0.0401,-0.0402,-0.0385,-0.0384,-0.0383,-0.0382,0,-0.006,-0.0076,-0.0036,-0.0001,0.0025,0.0093,0.0197,0.0269,0.0304,0.0373,0.0389,0.034,0.0219,0.0083,-0.0086,-0.0204,-0.036,-0.0435,-0.0396,-0.0412,-0.0515,-0.0514,-0.0544,-0.0545,-0.0546,-0.0546,-0.0547,0,-0.0048,-0.0034,0.0035,0.01,0.0126,0.0222,0.0297,0.0344,0.039,0.0409,0.0421,0.036,0.0283,0.0047,-0.0143,-0.0363,-0.0419,-0.0467,-0.0462,-0.0504,-0.0525,-0.0522,-0.052,-0.0435,-0.0434,-0.0434,-0.0434,0,0.0011,0.0038,0.0091,0.0196,0.0285,0.0357,0.0431,0.047,0.0486,0.0512,0.0444,0.0396,0.0232,0.0054,-0.0172,-0.0336,-0.0412,-0.0469,-0.0497,-0.0395,-0.0406,-0.0426,-0.0426,-0.0431,-0.0432,-0.0432,-0.0432,-0.0432,0.0089,0.0148,0.0214,0.0289,0.0392,0.0407,0.0435,0.0481,0.0492,0.0516,0.0459,0.0446,0.03,0.0044,-0.02,-0.0415,-0.0431,-0.0498,-0.0496,-0.0495,-0.0459,-0.047,-0.0504,-0.0505,-0.0505,-0.0506,-0.0506,0,0.0171,0.0203,0.0294,0.0344,0.0382,0.0431,0.046,0.0488,0.0447,0.0562,0.0554,0.0439,0.0283,0.0093,-0.0203,-0.0405,-0.0411,-0.0481,-0.0429,-0.043,-0.0431,-0.039,-0.0418,-0.0418,-0.0419,-0.0419,0,0,0.0227,0.0282,0.0258,0.0258,0.0301,0.0319,0.0302,0.0385,0.048,0.0574,0.0631,0.0707,0.0434,0.0242,-0.0041,-0.0218,-0.0278,-0.0261,-0.0309,-0.0215,-0.0213,-0.042,-0.0355,0,0,0,0,0]}],[{"header":{"parameterUnit":"m.s-1","parameterCategory":2,"la1":30.2991,"la2":30.254,"lo1":-89.0895,"lo2":-89.0444,"dy":0.0017,"dx":0.0017,"nx":28,"ny":28,"refTime":"2024-04-15T09:00:00:Z","depth":"4","parameterNumber":2,"parameterNumberName":"U-component_of_CURRENTS"},"data":[0,0,0,0,0,0,0,0,0,0,0,0,0,0,0,0,0,0,0,0,0,0,0,0,0,0,0,0,0,0,0,0,0,0,0,0,0,0,0,0,0,0,0,0,0,0,0,0,0,0,0,0,0,0,0,0,0,0,0.0778,0.0778,0,0.081,0.081,0.0811,0.086,0.0861,0.0862,0.0862,0.0948,0.0949,0.0951,0,0,0,0,0,0,0,0,0,0,0,0,0,0.0749,0.075,0.0778,0.0778,0.0778,0.081,0.081,0.0811,0.086,0.0861,0.0862,0.0862,0.0947,0.0949,0.0951,0,0,0,0,0,0,0,0,0,0,0,0,0,0.0772,0.075,0.0778,0.0805,0.0808,0.081,0.081,0.0811,0.086,0.0861,0.0862,0.0863,0.0947,0.0949,0.0951,0.0946,0,0,0.0959,0.096,0,0,0,0,0,0,0,0,0.077,0.0773,0.0801,0.0803,0.0806,0.083,0.0831,0.0858,0.086,0.0842,0.0862,0.0863,0.0911,0.0917,0.0923,0.095,0.0954,0.0959,0.0961,0.0962,0.0962,0,0,0,0,0,0,0,0.0769,0.0772,0.0793,0.0801,0.0804,0.0812,0.0817,0.0837,0.0873,0.0844,0.0847,0.0847,0.0913,0.092,0.0925,0.0955,0.0959,0.0961,0.0963,0.0964,0.1079,0.108,0,0,0,0,0,0,0.076,0.077,0.0792,0.0794,0.0788,0.0811,0.0817,0.0823,0.0872,0.0879,0.0846,0.0849,0.0915,0.0922,0.0928,0.1008,0.0962,0.0964,0.0965,0.1077,0.1079,0.1081,0,0,0,0,0,0,0.0759,0.0762,0.0791,0.0781,0.0785,0.0811,0.0818,0.0823,0.0857,0.0872,0.0882,0.0877,0.0916,0.0925,0.095,0.1009,0.0965,0.0967,0.1076,0.1078,0.108,0.1114,0,0,0,0,0,0,0.0758,0.0762,0.0772,0.078,0.0785,0.0789,0.0817,0.0823,0.0853,0.0858,0.0902,0.0909,0.0918,0.0946,0.0952,0.1011,0.0969,0.1074,0.1077,0.1079,0.1111,0.1117,0.1123,0,0,0,0,0,0.0757,0.0766,0.0772,0.0775,0.0796,0.0788,0.0791,0.0815,0.0853,0.0854,0.0886,0.0909,0.0971,0.0947,0.0955,0.1017,0.1072,0.1076,0.1079,0.1108,0.1116,0.1122,0,0,0,0,0,0,0.0764,0.0771,0.0779,0.0792,0.0787,0.0796,0.0813,0.0829,0.0858,0.0883,0.0906,0.0914,0.0968,0.0978,0.0952,0.106,0.1036,0.1041,0.1055,0.1063,0.1069,0.1079,0.0971,0,0,0,0,0,0.0766,0.0779,0.0774,0.0786,0.0791,0.0809,0.0818,0.0831,0.085,0.0867,0.0895,0.094,0.0984,0.1009,0.1036,0.1078,0.1086,0.1131,0.1137,0.1141,0.1156,0.1215,0.1228,0.1093,0.1093,0.1093,0,0,0.0769,0.078,0.0785,0.0789,0.0803,0.0802,0.0819,0.0839,0.0854,0.0871,0.0918,0.0956,0.0997,0.1049,0.1077,0.1067,0.1176,0.1146,0.115,0.1162,0.122,0.1233,0.1245,0.1095,0.1095,0.1094,0,0,0.0769,0.0798,0.0797,0.079,0.0802,0.082,0.0829,0.0846,0.0876,0.0907,0.0942,0.1006,0.1055,0.1101,0.1133,0.1189,0.1202,0.1213,0.1257,0.1314,0.1326,0.1336,0.1325,0.1335,0.122,0.122,0.122,0,0.0769,0.0776,0.0793,0.0781,0.0793,0.0831,0.083,0.0857,0.088,0.0926,0.0929,0.1063,0.1089,0.1186,0.1205,0.1207,0.1214,0.1224,0.1322,0.1333,0.1343,0.1329,0.1339,0.1222,0.1222,0.1222,0.1222,0,0.075,0.0759,0.0766,0.0775,0.0784,0.0798,0.0825,0.0863,0.0927,0.0968,0.1078,0.1117,0.121,0.1234,0.1235,0.1339,0.1308,0.1317,0.1301,0.1358,0.134,0.135,0.1225,0.1224,0.1224,0.1223,0,0,0.0727,0.075,0.0749,0.0765,0.0791,0.0802,0.085,0.0916,0.1003,0.1047,0.1143,0.1235,0.1298,0.1337,0.1368,0.1412,0.1469,0.1395,0.1397,0.1378,0.155,0.1449,0.1449,0.1497,0.15,0.1502,0.1493,0,0.071,0.0696,0.0725,0.0746,0.0747,0.0811,0.0883,0.0952,0.1031,0.1126,0.1212,0.1323,0.1327,0.1399,0.1443,0.146,0.1503,0.1467,0.1503,0.1503,0.1404,0.1461,0.1512,0.15,0.1502,0.1504,0.1505,0,0.0662,0.0672,0.0679,0.0771,0.0791,0.0843,0.0987,0.1041,0.1179,0.127,0.1378,0.1422,0.1506,0.1503,0.1578,0.1553,0.1567,0.1569,0.157,0.1477,0.1423,0.1442,0.1522,0.1521,0.152,0.1519,0.1518,0,0.0613,0.0645,0.0673,0.0681,0.0786,0.0866,0.096,0.1104,0.1189,0.1356,0.1434,0.1543,0.1609,0.1639,0.1625,0.1619,0.1668,0.1662,0.1585,0.1574,0.165,0.1639,0.1744,0.1744,0.1744,0.1744,0.1744,0,0.0569,0.0589,0.0675,0.0683,0.0815,0.0879,0.1045,0.1174,0.1321,0.1417,0.1518,0.158,0.1654,0.1657,0.1645,0.1622,0.1697,0.1601,0.1586,0.1656,0.1647,0.1653,0.1643,0.1743,0.1744,0.1744,0.1744,0,0.051,0.0542,0.0592,0.0724,0.0789,0.0887,0.1091,0.1172,0.1361,0.1457,0.1506,0.1622,0.1647,0.1658,0.1697,0.1653,0.1637,0.1623,0.1655,0.1639,0.1491,0.1483,0.1531,0.1527,0.1525,0.1522,0.1521,0,0.0478,0.048,0.0622,0.0685,0.0769,0.0917,0.1009,0.1199,0.1255,0.1446,0.1451,0.154,0.1587,0.1537,0.1595,0.1575,0.1579,0.156,0.157,0.15,0.148,0.1476,0.1471,0.1516,0.1516,0.1515,0.1514,0,0.0423,0.0486,0.0548,0.0671,0.077,0.086,0.099,0.1036,0.1197,0.1342,0.1383,0.1409,0.1441,0.1459,0.1475,0.146,0.1558,0.1532,0.1538,0.1548,0.1483,0.1465,0.1464,0.1505,0.1506,0.1507,0.1508,0,0.0412,0.0465,0.0546,0.0663,0.0742,0.0773,0.0864,0.0917,0.1002,0.119,0.1183,0.1288,0.1391,0.1399,0.1388,0.1387,0.1385,0.1353,0.1368,0.1379,0.1343,0.1239,0.1184,0,0,0,0,0,0.0413,0.0463,0.053,0.0627,0.0674,0.0722,0.082,0.0884,0.1007,0.0991,0.1102,0.1119,0.1176,0.1236,0.1207,0.1335,0.1384,0.1298,0.1352,0.1453,0.1464,0.1439,0,0,0,0,0,0,0.0414,0.0487,0.0509,0.0524,0.0571,0.06,0.0645,0.0727,0.0743,0.0892,0.0916,0.1051,0.1105,0.1163,0.118,0.1201,0.1214,0.1378,0.1376,0.1447,0.1457,0.1465,0.1444,0,0,0,0,0]},{"header":{"parameterUnit":"m.s-1","parameterCategory":2,"la1":30.2991,"la2":30.254,"lo1":-89.0895,"lo2":-89.0444,"dy":0.0017,"dx":0.0017,"nx":28,"ny":28,"refTime":"2024-04-15T09:00:00:Z","depth":"4","parameterNumber":3,"parameterNumberName":"V-component_of_CURRENTS"},"data":[0,0,0,0,0,0,0,0,0,0,0,0,0,0,0,0,0,0,0,0,0,0,0,0,0,0,0,0,0,0,0,0,0,0,0,0,0,0,0,0,0,0,0,0,0,0,0,0,0,0,0,0,0,0,0,0,0,0,-0.0061,-0.0062,0,-0.0086,-0.0087,-0.0087,-0.0125,-0.0126,-0.0126,-0.0127,-0.0163,-0.0163,-0.0164,0,0,0,0,0,0,0,0,0,0,0,0,0,-0.0038,-0.0039,-0.0061,-0.0062,-0.0062,-0.0086,-0.0087,-0.0087,-0.0125,-0.0126,-0.0126,-0.0127,-0.0163,-0.0163,-0.0164,0,0,0,0,0,0,0,0,0,0,0,0,0,-0.0055,-0.0039,-0.0061,-0.0083,-0.0085,-0.0086,-0.0087,-0.0087,-0.0125,-0.0126,-0.0127,-0.0127,-0.0162,-0.0163,-0.0164,-0.015,0,0,-0.0166,-0.0166,0,0,0,0,0,0,0,0,-0.0054,-0.0056,-0.0079,-0.0081,-0.0084,-0.0103,-0.0092,-0.0109,-0.0125,-0.0111,-0.0127,-0.0128,-0.0142,-0.0145,-0.0149,-0.0152,-0.0154,-0.0166,-0.0166,-0.0166,-0.0167,0,0,0,0,0,0,0,-0.0053,-0.0055,-0.0072,-0.008,-0.0082,-0.0088,-0.0092,-0.0095,-0.0122,-0.0112,-0.0115,-0.0115,-0.0144,-0.0148,-0.015,-0.0154,-0.0166,-0.0166,-0.0167,-0.0167,-0.0202,-0.0202,0,0,0,0,0,0,-0.0047,-0.0054,-0.0072,-0.0073,-0.007,-0.0088,-0.0092,-0.0097,-0.0122,-0.0127,-0.0115,-0.0117,-0.0147,-0.0149,-0.0151,-0.0146,-0.0166,-0.0167,-0.0167,-0.0201,-0.0202,-0.0202,0,0,0,0,0,0,-0.0047,-0.0049,-0.0071,-0.0063,-0.0066,-0.0088,-0.0092,-0.0097,-0.0109,-0.0124,-0.0129,-0.0123,-0.0147,-0.015,-0.0148,-0.0147,-0.0167,-0.0168,-0.02,-0.0201,-0.0202,-0.0129,0,0,0,0,0,0,-0.0046,-0.0049,-0.0049,-0.0063,-0.0067,-0.0059,-0.0091,-0.0096,-0.0107,-0.011,-0.0132,-0.0136,-0.0148,-0.0147,-0.0149,-0.0148,-0.0168,-0.02,-0.0201,-0.0202,-0.013,-0.0127,-0.0124,0,0,0,0,0,-0.0045,-0.0041,-0.0049,-0.0051,-0.0067,-0.0058,-0.006,-0.0079,-0.0106,-0.0097,-0.0116,-0.0136,-0.0157,-0.0147,-0.0149,-0.0149,-0.0199,-0.0201,-0.0202,-0.0132,-0.0127,-0.0124,0,0,0,0,0,0,-0.0033,-0.0045,-0.0054,-0.0054,-0.005,-0.0064,-0.0063,-0.0079,-0.0089,-0.01,-0.0123,-0.0127,-0.0132,-0.0153,-0.0142,-0.0168,-0.0189,-0.0191,-0.0136,-0.0132,-0.0128,-0.0113,-0.0169,0,0,0,0,0,-0.0029,-0.0029,-0.0035,-0.0033,-0.0033,-0.005,-0.0052,-0.0063,-0.0073,-0.008,-0.0096,-0.0123,-0.0138,-0.0142,-0.0158,-0.0156,-0.02,-0.0167,-0.0164,-0.0161,-0.0153,-0.0236,-0.0239,-0.0206,-0.0206,-0.0206,0,0,-0.0025,-0.003,-0.0031,-0.003,-0.0036,-0.0007,-0.0054,-0.0053,-0.0029,-0.0081,-0.0064,-0.0106,-0.0136,-0.0137,-0.0143,-0.0152,-0.0191,-0.0162,-0.0159,-0.0153,-0.0237,-0.024,-0.0243,-0.0207,-0.0207,-0.0207,0,0,0.0003,-0.002,0.0,0.0014,0.0015,0.001,0.0012,0.0001,-0.0006,0.0006,-0.0038,-0.0076,-0.0085,-0.0113,-0.0127,-0.0118,-0.0172,-0.0135,-0.0098,-0.0178,-0.0181,-0.0184,-0.0226,-0.0234,-0.0132,-0.0132,-0.0132,0,0.0011,0.004,0.001,0.0047,0.0066,0.0025,0.0068,0.0064,0.0055,0.0039,0.0021,-0.0052,-0.0073,-0.0097,-0.009,-0.0108,-0.0154,-0.0102,-0.0172,-0.0176,-0.0181,-0.0224,-0.0233,-0.0128,-0.0129,-0.0129,-0.0129,0,0.0069,0.0099,0.0113,0.0149,0.016,0.0188,0.0185,0.018,0.015,0.0125,0.0081,0.0033,-0.0023,-0.0038,-0.0049,-0.0098,-0.0119,-0.0157,-0.0175,-0.0179,-0.0225,-0.0236,-0.0123,-0.0125,-0.0126,-0.0126,0,0,0.0081,0.0143,0.0154,0.0186,0.0219,0.0227,0.0263,0.0264,0.0235,0.0211,0.0167,0.0137,0.0056,0.0033,-0.0019,-0.0073,-0.0131,-0.0117,-0.0123,-0.0145,-0.0288,-0.0219,-0.0225,-0.0188,-0.019,-0.0192,-0.0299,0,0.0145,0.0234,0.025,0.0328,0.0369,0.0354,0.0379,0.0361,0.0311,0.0253,0.0178,0.0111,0.01,0.0038,-0.0009,-0.0114,-0.0161,-0.0097,-0.0292,-0.0297,-0.0226,-0.0236,-0.0198,-0.0307,-0.031,-0.0312,-0.0313,0,0.0216,0.026,0.0358,0.0401,0.0412,0.0447,0.0425,0.0434,0.0351,0.0297,0.0212,0.0128,0.0056,0.0019,-0.0122,-0.0085,-0.017,-0.0243,-0.025,-0.0219,-0.025,-0.0311,-0.0334,-0.0332,-0.0331,-0.0329,-0.0328,0,0.0246,0.0337,0.0412,0.044,0.0481,0.0497,0.0494,0.0437,0.0402,0.0292,0.0223,0.0124,0.0042,-0.0066,-0.0168,-0.0174,-0.0329,-0.0372,-0.0384,-0.038,-0.0442,-0.0438,-0.0484,-0.0484,-0.0483,-0.0483,-0.0483,0,0.0321,0.0376,0.0427,0.0467,0.0495,0.0513,0.0487,0.0459,0.0381,0.0324,0.0226,0.016,0.0009,-0.0087,-0.0179,-0.0285,-0.0341,-0.0371,-0.0407,-0.0406,-0.0397,-0.0449,-0.0443,-0.0487,-0.0486,-0.0485,-0.0485,0,0.0357,0.0411,0.0467,0.051,0.0518,0.052,0.0487,0.044,0.0385,0.0304,0.0269,0.0158,0.0051,-0.0068,-0.0249,-0.03,-0.0415,-0.0442,-0.0392,-0.0425,-0.0416,-0.0406,-0.0496,-0.0494,-0.0493,-0.0492,-0.0491,0,0.039,0.0431,0.0473,0.0462,0.0482,0.0478,0.0458,0.0434,0.0391,0.0319,0.0286,0.0174,0.01,-0.0076,-0.0203,-0.0366,-0.0385,-0.0449,-0.0458,-0.0393,-0.042,-0.0411,-0.0403,-0.0489,-0.0489,-0.0489,-0.0488,0,0.04,0.0411,0.0431,0.0422,0.0416,0.0422,0.0412,0.0404,0.0382,0.0326,0.0295,0.0203,0.0091,-0.0043,-0.0155,-0.0275,-0.0412,-0.0438,-0.0442,-0.0452,-0.0387,-0.0412,-0.0406,-0.0484,-0.0485,-0.0485,-0.0485,0,0.036,0.0346,0.0349,0.0351,0.0353,0.0391,0.0392,0.0386,0.0375,0.0342,0.034,0.023,0.0155,0.0005,-0.0096,-0.0198,-0.025,-0.0301,-0.0314,-0.032,-0.0224,-0.0113,-0.0154,0,0,0,0,0,0.0294,0.027,0.0262,0.0283,0.031,0.0342,0.0364,0.0371,0.0391,0.0379,0.037,0.0285,0.014,0.0065,-0.0027,-0.0101,-0.0281,-0.0215,-0.035,-0.046,-0.0465,-0.0374,0,0,0,0,0,0,0.023,0.0204,0.0236,0.0261,0.0286,0.0331,0.0376,0.0395,0.0397,0.0395,0.0322,0.0267,0.0122,0.0204,-0.0024,-0.006,-0.0158,-0.0294,-0.0296,-0.0458,-0.0462,-0.0466,-0.0374,0,0,0,0,0]}]]